This is the latest recevied weather packets stored in our database for station/object N2XGL-1. If no packets are shown the sender has not sent any weather packets the latest 10 day(s).
| Time | Temp. | Humidity | Pressure | Rain* | Wind** | Luminosity | Snow |
|---|---|---|---|---|---|---|---|
| 1777946468 | 10.56° C | 74% | 1002.6 hPa | 0 mm | - | - | - |
| 1777945973 | 10.56° C | 74% | 1002.6 hPa | 0 mm | - | - | - |
| 1777945401 | 11.11° C | 74% | 1002.4 hPa | 0 mm | - | - | - |
| 1777944318 | 11.67° C | 72% | 1002.3 hPa | 0 mm | - | - | - |
| 1777943761 | 11.67° C | 71% | 1002.2 hPa | 0 mm | - | - | - |
| 1777942088 | 13.33° C | 63% | 1002.1 hPa | 0 mm | - | - | - |
| 1777941634 | 13.33° C | 63% | 1002 hPa | 0 mm | - | - | - |
| 1777941588 | 13.33° C | 63% | 1002 hPa | 0 mm | - | - | - |
| 1777940988 | 13.33° C | 65% | 1001.8 hPa | 0 mm | - | - | - |
| 1777939818 | 13.89° C | 75% | 1001.5 hPa | 0 mm | - | - | - |
| 1777938159 | 13.33° C | 76% | 1001.2 hPa | 0.76 mm | - | - | - |
| 1777937601 | 13.33° C | 76% | 1000.9 hPa | 0.76 mm | - | - | - |
| 1777937024 | 13.33° C | 75% | 1001.2 hPa | 0.76 mm | - | - | - |
| 1777936479 | 13.33° C | 74% | 1001.5 hPa | 0.76 mm | - | - | - |
| 1777935968 | 14.44° C | 68% | 1001.4 hPa | 0.76 mm | - | - | - |
| 1777935921 | 14.44° C | 68% | 1001.4 hPa | 0.76 mm | - | - | - |
| 1777934868 | 16.11° C | 54% | 1001.1 hPa | 0 mm | - | - | - |
| 1777934369 | 16.11° C | 45% | 1000.8 hPa | 0 mm | - | - | - |
| 1777933803 | 16.67° C | 43% | 1000.4 hPa | 0 mm | - | - | - |
| 1777933244 | 16.67° C | 43% | 1000.3 hPa | 0 mm | - | - | - |
| 1777932672 | 16.67° C | 44% | 1000 hPa | 0 mm | - | - | - |
| 1777932313 | 16.67° C | 43% | 999.4 hPa | 0 mm | - | - | - |
| 1777932166 | 16.67° C | 43% | 999.4 hPa | 0 mm | - | - | - |
| 1777931641 | 16.67° C | 46% | 999.4 hPa | 0 mm | - | - | - |
| 1777931099 | 16.67° C | 47% | 999.9 hPa | 0.25 mm | - | - | - |
* Rain latest hour (hover to see other rain measurements)
** Current wind speed in m/s (hover to see current wind gust speed)